EW5024 Weather Reports


Display with metric or nautical units.
time (UTC)temp
F
wind
direction
speed
MPH
gust
MPH
rain 1hr
in
rain 24hr
in
rain mn
in
humidity
%
barometer
mb
20260906124521 89 219 1.0 4.0 0.00 0.00 0.00 35 1021.0
20260906123019 88 252 3.0 7.0 0.00 0.00 0.00 36 1021.2
20260906121522 89 307 3.0 5.0 0.00 0.00 0.00 35 1021.3
20260906120017 88 292 1.0 5.0 0.00 0.00 0.00 35 1021.6
20260906114512 86 350 2.0 5.0 0.00 0.00 0.00 35 1021.7
20260906113008 85 338 1.0 6.0 0.00 0.00 0.00 39 1021.8
20260906111505 84 336 2.0 8.0 0.00 0.00 0.00 38 1022.0
20260906110005 83 5 4.0 8.0 0.00 0.00 0.00 40 1022.1
20260906104501 83 336 3.0 8.0 0.00 0.00 0.00 42 1022.3
20260906103058 82 38 3.0 9.0 0.00 0.00 0.00 42 1022.3
20260906101559 81 86 5.0 10.0 0.00 0.00 0.00 44 1022.6
20260906100054 81 316 4.0 9.0 0.00 0.00 0.00 44 1022.9
20260906094551 80 346 4.0 9.0 0.00 0.00 0.00 44 1023.1
20260906093056 79 92 4.0 11.0 0.00 0.00 0.00 46 1023.3
20260906091546 78 336 3.0 6.0 0.00 0.00 0.00 48 1023.5
20260906090044 77 317 4.0 8.0 0.00 0.00 0.00 50 1023.8
20260906084549 76 351 3.0 10.0 0.00 0.00 0.00 51 1023.9
20260906083036 75 305 2.0 6.0 0.00 0.00 0.00 52 1024.0
20260906081534 74 360 3.0 6.0 0.00 0.00 0.00 53 1024.1
20260906080033 73 350 3.0 8.0 0.00 0.00 0.00 55 1024.2
20260906074528 72 342 4.0 8.0 0.00 0.00 0.00 56 1024.3
20260906073027 71 332 2.0 6.0 0.00 0.00 0.00 59 1024.2
20260906071521 70 332 3.0 6.0 0.00 0.00 0.00 60 1024.2
20260906070019 69 319 2.0 5.0 0.00 0.00 0.00 63 1024.2
20260906064527 68 298 3.0 6.0 0.00 0.00 0.00 64 1024.3
20260906063016 67 350 2.0 5.0 0.00 0.00 0.00 67 1024.2
20260906061514 65 309 1.0 3.0 0.00 0.00 0.00 70 1024.0
20260906060020 64 324 1.0 4.0 0.00 0.00 0.00 72 1023.8
20260906054511 63 317 2.0 4.0 0.00 0.00 0.00 72 1023.8
20260906053019 63 314 2.0 4.0 0.00 0.00 0.00 72 1023.6
20260906051508 63 307 0.0 1.0 0.00 0.00 0.00 72 1023.3
20260906050006 63 307 1.0 3.0 0.00 0.00 0.00 72 1023.2
20260906044502 63 306 1.0 3.0 0.00 0.00 0.00 72 1022.9
20260906043101 63 301 1.0 3.0 0.00 0.00 0.00 73 1022.8
20260906041558 63 317 0.0 3.0 0.00 0.00 0.00 72 1022.7
20260906040056 64 318 0.0 2.0 0.00 0.00 0.00 72 1022.5
20260906034555 64 317 1.0 3.0 0.00 0.00 0.00 72 1022.4
20260906033059 64 319 2.0 4.0 0.00 0.00 0.00 70 1022.4
20260906031552 65 329 2.0 4.0 0.00 0.00 0.00 69 1022.1
20260906030053 64 318 2.0 4.0 0.00 0.00 0.00 72 1022.0
20260906024549 64 314 1.0 3.0 0.00 0.00 0.00 72 1022.0
20260906023048 64 313 1.0 3.0 0.00 0.00 0.00 72 1022.1
20260906021551 65 295 2.0 3.0 0.00 0.00 0.00 72 1022.0
20260906020044 65 322 1.0 3.0 0.00 0.00 0.00 70 1021.8
20260906014546 65 323 4.0 8.0 0.00 0.00 0.00 72 1021.6
20260906013041 65 300 0.0 4.0 0.00 0.00 0.00 73 1021.6
20260906011539 65 313 1.0 4.0 0.00 0.00 0.00 73 1021.5
20260906010037 66 310 1.0 2.0 0.00 0.00 0.00 74 1021.3
20260906004535 66 309 0.0 2.0 0.00 0.00 0.00 73 1021.3
20260906003034 67 312 1.0 3.0 0.00 0.00 0.00 71 1021.3
20260906001531 67 320 1.0 3.0 0.00 0.00 0.00 71 1021.3
20260906000029 67 319 0.0 2.0 0.00 0.00 0.00 71 1021.3
20260905234526 68 309 1.0 4.0 0.00 0.00 0.00 70 1021.1
20260905233026 68 299 1.0 3.0 0.00 0.00 0.00 71 1021.0
20260905231522 68 319 1.0 3.0 0.00 0.00 0.00 71 1020.8
20260905230019 69 320 2.0 4.0 0.00 0.00 0.00 71 1020.7
20260905224520 69 320 1.0 3.0 0.00 0.00 0.00 72 1020.6
20260905223015 69 319 0.0 2.0 0.00 0.00 0.00 73 1020.4
20260905221527 70 317 1.0 3.0 0.00 0.00 0.00 72 1020.2
20260905220008 70 318 1.0 3.0 0.00 0.00 0.00 72 1020.0
20260905214506 71 311 1.0 3.0 0.00 0.00 0.00 71 1019.8
20260905213005 71 314 0.0 3.0 0.00 0.00 0.00 72 1019.6
20260905211503 72 315 0.0 4.0 0.00 0.00 0.00 71 1019.5
20260905210002 71 310 1.0 3.0 0.00 0.00 0.00 73 1019.4
20260905204502 72 312 1.0 6.0 0.00 0.00 0.00 72 1019.3
20260905203104 72 327 1.0 5.0 0.00 0.00 0.00 73 1019.2
20260905201608 73 320 1.0 3.0 0.00 0.00 0.00 72 1019.1
20260905194555 74 329 1.0 3.0 0.00 0.00 0.00 73 1018.6
20260905193053 75 329 0.0 0.0 0.00 0.00 0.00 73 1018.4
20260905191552 75 331 0.0 1.0 0.00 0.00 0.00 71 1018.2
20260905190103 76 331 1.0 2.0 0.00 0.00 0.00 72 1017.9
20260905184604 76 329 1.0 2.0 0.00 0.00 0.00 72 1017.7
20260905183048 78 329 1.0 2.0 0.00 0.00 0.00 70 1017.4
20260905181547 78 9 0.0 3.0 0.00 0.00 0.00 68 1017.0
20260905180047 79 5 2.0 4.0 0.00 0.00 0.00 68 1016.8
20260905174554 81 243 1.0 4.0 0.00 0.00 0.00 62 1016.6
20260905173046 82 242 1.0 3.0 0.00 0.00 0.00 58 1016.4
20260905171545 82 242 0.0 0.0 0.00 0.00 0.00 54 1016.2
20260905170045 83 242 0.0 1.0 0.00 0.00 0.00 51 1016.0
20260905164544 83 242 1.0 2.0 0.00 0.00 0.00 50 1015.8
20260905163043 84 242 0.0 2.0 0.00 0.00 0.00 50 1015.7
20260905161542 84 242 0.0 2.0 0.00 0.00 0.00 52 1015.7
20260905160042 84 242 0.0 1.0 0.00 0.00 0.00 52 1015.6
20260905154541 84 242 0.0 3.0 0.00 0.00 0.00 53 1015.5
20260905153040 85 247 2.0 3.0 0.00 0.00 0.00 52 1015.4
20260905151539 86 246 0.0 4.0 0.00 0.00 0.00 53 1015.4
20260905150039 86 240 1.0 3.0 0.00 0.00 0.00 53 1015.4
20260905144637 87 240 2.0 4.0 0.00 0.00 0.00 52 1015.5
20260905143035 87 276 1.0 4.0 0.00 0.00 0.00 50 1015.5
20260905141541 87 28 2.0 9.0 0.00 0.00 0.00 49 1015.6
20260905140030 87 59 3.0 6.0 0.00 0.00 0.00 47 1015.7
20260905134527 86 350 3.0 5.0 0.00 0.00 0.00 49 1015.8
20260905133023 86 252 1.0 7.0 0.00 0.00 0.00 51 1016.1
20260905131539 85 338 3.0 6.0 0.00 0.00 0.00 50 1016.1
20260905130017 85 312 1.0 6.0 0.00 0.00 0.00 50 1016.2